Location: Laverne
(36.7100°N, 99.8930°W)
Time: 10:56:20
(UTC-05:00)

Daily predictions for brighter satellites

Satellite Brightness Start Highest point End
(mag) Time Altitude Azimuth Time Altitude Azimuth Time Altitude Azimuth
ATLAS 3B R/B 3.4 21:11:57 10° S 21:19:00 41° ESE 21:26:00 10° NE
SPOT 5 4.4 21:21:58 10° ESE 21:24:47 17° ENE 21:27:34 10° NNE
Cosmos 1302 Rocket 4.4 21:26:16 10° NNW 21:31:29 67° WSW 21:36:41 10° S
Cosmos 2034 Rocket 4.1 21:25:37 10° N 21:31:58 71° E 21:38:14 10° SSE
Cosmos 1666 3.0 21:33:49 10° NNW 21:37:43 71° W 21:41:34 10° S
CZ-4 DEB 3.4 21:35:24 10° S 21:38:34 57° W 21:41:46 10° NNW
Cosmos 2369 Rocket 3.1 21:34:51 10° N 21:39:57 34° ENE 21:44:34 12° ESE
ERS-1 Rocket 3.0 21:38:15 10° SSE 21:43:14 70° ENE 21:48:14 10° N
COSMOS 2455 3.1 21:38:07 10° SSW 21:44:06 75° WNW 21:50:08 10° NNE
GRACE-1 4.2 21:44:51 10° NNE 21:47:38 48° E 21:50:09 12° SSE
GRACE-2 4.2 21:45:17 10° NNE 21:48:04 48° E 21:50:34 12° SSE
SJ-11-01 4.2 21:47:57 10° SSE 21:52:36 79° ENE 21:57:17 10° N
Envisat 3.2 21:57:18 14° SSE 22:01:31 55° ENE 22:06:29 10° N
CZ-2C R/B 1.9 22:01:10 11° SSW 22:03:12 34° W 22:05:19 10° NNW
GEOS 3 Rocket 3.6 21:59:26 15° SE 22:03:47 82° NE 22:09:02 10° NNW
Cosmos 407 Rocket 3.7 21:59:04 10° S 22:04:09 51° ESE 22:09:13 10° NNE
USA 238 DEB 4.3 22:00:27 10° S 22:06:43 35° ESE 22:12:57 10° NE
USA 238 4.3 22:00:35 10° S 22:06:49 34° ESE 22:13:02 10° NE
Cosmos 1515 3.6 22:03:50 10° S 22:07:41 86° E 22:11:34 10° N
SL-27 R/B 4.1 22:10:37 17° E 22:10:37 17° E 22:12:22 10° NE
USA 186 4.4 22:13:03 10° WSW 22:14:06 12° W 22:15:08 10° WNW
Cosmos 1825 Rocket 3.5 22:10:34 10° S 22:14:54 70° E 22:19:19 10° NNE
MetOp-A 4.4 22:12:57 20° SE 22:16:29 51° ENE 22:21:39 10° N
Cosmos 1066 Rocket 4.2 22:16:54 10° S 22:22:35 80° E 22:28:26 10° N
UNK 4.3 22:17:36 10° NNE 22:23:09 69° ESE 22:28:59 10° S
Lacrosse 4 Rocket 1.8 22:19:24 10° SW 22:23:24 62° WNW 22:27:27 10° NNE
COSMOS 2406 4.1 22:21:23 23° SE 22:23:28 29° ESE 22:28:19 10° NE
Cosmos 1812 Rocket 4.5 22:20:57 10° NNW 22:25:11 47° W 22:29:25 10° SSW
Cosmos 1954 Rocket 4.3 22:21:57 18° SSE 22:25:39 45° ESE 22:30:42 10° NNE
Cosmos 1943 Rocket 3.1 22:24:17 10° N 22:29:18 33° ENE 22:31:53 23° ESE
ISS 0.2 22:29:50 10° NW 22:30:55 11° NNW 22:32:02 10° N
H-2A R/B 3.4 22:30:32 10° SSW 22:34:25 36° W 22:38:28 10° NNW
SeaSat 1 2.7 22:32:37 29° SE 22:35:00 56° ENE 22:39:50 10° NNW
Cosmos 1992 Rocket 4.5 22:31:48 10° NNW 22:36:55 56° WSW 22:40:28 19° S
Atlas Centaur 2 3.1 22:31:31 10° W 22:38:20 51° S 22:42:50 26° SE
Cosmos 1943 4.2 22:33:33 10° SW 22:39:00 48° WNW 22:44:31 10° N
Meteor 1-22 Rocket 4.2 22:35:34 10° N 22:41:16 78° E 22:44:34 27° SSE
Kosmos-1675 3.1 22:47:09 54° SSE 22:47:35 62° ESE 22:53:52 10° NE
Cosmos 1953 3.3 22:49:19 10° NNE 22:52:53 31° ENE 22:52:53 31° ENE
PSLV R/B 4.2 22:49:37 10° WNW 22:53:04 48° N 22:54:07 35° ENE
USA 81 4.5 22:49:16 10° NNW 22:54:28 60° W 22:57:54 21° SSW
CZ-4B R/B 3.7 22:49:40 10° N 22:54:49 74° WNW 22:59:09 15° SSW
CZ-4 R/B 3.8 22:50:01 10° NNE 22:55:02 77° ESE 22:57:25 32° S
Cosmos 1346 Rocket 3.9 22:55:11 15° SW 22:58:07 40° WNW 23:01:52 10° N
Terra 2.9 22:57:55 27° E 22:58:41 29° ENE 23:02:46 10° N
Nadezhda 4 Rocket 4.4 22:58:24 35° SE 23:00:15 43° E 23:06:10 10° NNE
Cosmos 1023 Rocket 4.5 22:58:38 38° SSE 23:00:31 63° ESE 23:05:44 10° NNE
USA 245 4.1 22:58:46 34° S 23:01:23 84° WSW 23:06:18 10° NNW
Cosmos 1842 3.1 23:00:59 65° SSE 23:01:29 80° E 23:05:24 10° N
ARGOS 3.1 22:59:31 40° SSE 23:01:33 76° ENE 23:06:59 10° N
SPOT 5 3.8 23:00:16 21° SSW 23:02:34 36° W 23:06:35 10° NNW
Cosmos-2242 3.1 23:00:06 10° N 23:04:27 57° E 23:04:55 54° ESE
Cosmos 1850 Rocket 4.1 23:04:58 47° SE 23:05:52 53° ESE 23:10:57 10° NNE
Cosmos 1140 Rocket 3.4 23:06:28 39° S 23:08:24 75° ESE 23:13:38 10° NNE
ATLAS 3B R/B 4.1 23:02:27 10° WSW 23:09:43 44° NW 23:16:52 10° NNE
Cosmos 1570 Rocket 4.4 23:08:30 10° N 23:13:43 50° ENE 23:14:45 44° ESE
H-2A R/B 2.3 23:14:20 44° E 23:15:05 47° ENE 23:19:58 10° N
YAOGAN 6 3.7 23:18:24 34° WSW 23:18:58 37° W 23:22:28 10° NNW
Cosmos 1607 3.8 23:16:51 18° SSW 23:21:41 86° ESE 23:27:57 10° NNE
NOSS 3-2 (A) 3.7 23:22:47 44° ESE 23:22:47 44° ESE 23:28:50 10° NE
Cosmos 2369 Rocket 3.6 23:19:00 10° NW 23:23:50 30° WSW 23:26:23 21° SW
SPOT 1/Viking Rocket 4.1 23:22:33 35° SSW 23:24:21 50° W 23:29:22 10° NNW
USA 234 3.5 23:24:29 36° ESE 23:27:15 64° NE 23:33:44 10° NW
Cosmos 614 Rocket 3.8 23:27:50 66° SE 23:28:18 70° ESE 23:33:30 10° NNE
Cosmos 1766 4.4 23:26:28 10° NNW 23:30:10 37° W 23:30:43 35° WSW
SL-08 RB Rocket 3.9 23:29:36 56° SW 23:30:12 62° W 23:34:41 10° NNW
SAR-Lupe-2 4.4 23:32:34 47° N 23:32:34 47° N 23:35:16 10° N
Cosmos 2279 Rocket 4.4 23:26:06 10° NNW 23:32:13 59° W 23:34:51 34° SSW
Cosmos 1340 4.4 23:35:42 25° NE 23:35:42 25° NE 23:37:35 10° NNE
Cosmos 1544 4.5 23:34:00 10° N 23:36:27 33° NNE 23:36:27 33° NNE
Spot 2 4.3 23:33:34 10° NNE 23:38:32 81° ESE 23:38:53 76° SSE
CARTOSAT-1 3.6 23:39:08 77° NNE 23:39:08 77° NNE 23:43:11 10° N
Cosmos 1758 3.7 23:37:38 10° NNW 23:41:25 60° WNW 23:41:25 60° WNW
Meteor 2-5 Rocket 3.9 23:42:55 54° E 23:43:05 54° E 23:48:42 10° NNE
Okean 3 Rocket 4.4 23:45:27 40° NE 23:45:27 40° NE 23:48:38 10° NNE
CZ-4C R/B 2.2 23:48:42 58° E 23:48:42 58° E 23:53:47 10° NE
IGS 5A 4.0 23:56:22 57° NW 23:56:22 57° NW 23:59:48 10° NNW
Cosmos 1470 4.0 23:52:15 10° N 23:54:45 36° NNE 23:54:45 36° NNE
